Wind_Gust
24 23 23 22 21 21 21 21 20 20 19 19 20 18 17 17 18 18 15 15 16 16 15 14 14 13 12 12 13 12 11 10 9 11 10 10 9 9 8 10 12 9 9 8 6 7 8 8 7 6 7 10 7 8 9 8 9 10 9 11 11 7 9 9 10 6 5 3 5 8 9 8 12 8 11 11 11 13 12 11 9 9 12 12 14
25 24 23 23 23 22 22 20 21 20 20 20 19 19 17 18 17 16 17 16 17 17 16 14 13 13 13 12 12 12 11 11 10 11 12 11 9 9 10 10 11 9 8 9 7 7 8 10 7 6 7 10 8 9 8 9 10 11 9 11 10 9 4 9 5 5 3 7 9 7 9 6 9 7 8 10 12 11 14 14 13 9 11 13 14
25 23 23 22 22 23 23 22 22 22 22 20 20 20 19 17 18 20 18 17 15 17 17 15 14 14 13 13 13 12 12 11 10 11 12 12 12 9 9 10 11 11 11 10 10 9 9 10 8 8 8 11 8 7 8 9 8 11 7 7 9 7 6 7 9 5 5 5 4 6 7 8 5 8 9 8 9 9 11 14 14 14 13 12 14
25 23 23 22 21 22 23 23 24 23 23 22 21 19 20 19 18 19 18 17 18 14 15 16 15 14 14 13 13 12 12 11 11 10 12 12 12 11 9 9 10 10 11 11 10 10 11 10 9 9 10 11 7 9 8 8 10 9 8 5 9 8 6 6 5 8 3 4 5 5 6 6 9 6 8 10 10 13 11 14 13 13 14 13 13
25 24 24 24 23 24 22 23 24 24 23 21 22 21 20 19 18 19 18 18 16 16 14 14 15 14 16 15 13 13 13 12 11 10 9 10 11 12 10 10 10 11 11 11 10 10 9 10 9 9 10 12 6 8 7 9 7 9 8 6 9 7 6 7 6 6 7 4 6 6 4 6 7 8 5 10 13 13 11 13 14 14 14 14 12
25 24 24 25 24 24 24 23 25 25 24 22 23 23 22 20 19 17 19 19 16 16 18 15 16 15 14 14 14 13 12 12 12 12 11 11 12 11 11 10 10 11 10 9 10 8 9 10 9 9 10 12 9 7 8 9 7 8 7 6 7 7 8 5 6 5 5 2 2 9 4 7 10 9 7 7 10 13 13 15 15 11 10 17 20
25 25 24 24 25 25 25 25 26 24 24 23 23 22 22 21 21 19 18 19 19 17 16 16 14 15 14 14 14 13 12 11 12 12 11 12 12 12 10 10 10 10 9 9 7 8 10 10 9 9 10 10 11 10 9 7 9 7 8 8 5 8 7 5 5 5 5 5 4 2 7 7 3 9 11 9 10 7 8 14 19 20 17 9 16
25 25 25 25 26 27 25 23 24 25 22 23 24 22 21 21 21 20 19 19 19 19 19 18 15 14 15 14 13 13 13 12 11 11 12 13 13 11 11 12 11 10 8 7 8 10 10 10 10 9 10 10 11 9 10 10 7 7 5 6 7 8 6 5 5 5 5 5 3 6 4 6 12 7 9 7 10 14 11 9 16 20 21 19 13
26 26 26 26 26 25 22 22 22 23 24 23 23 23 22 21 21 21 20 19 18 19 17 16 16 14 13 14 13 12 14 14 13 13 13 12 12 12 11 12 12 12 9 8 8 10 9 9 8 8 9 11 12 11 10 11 11 10 5 6 6 8 5 4 5 5 4 3 7 4 6 11 10 8 14 10 13 14 17 7 12 16 15 18 20
25 25 26 26 24 23 24 22 22 23 24 24 25 23 23 23 22 21 21 20 18 18 17 16 16 17 16 14 13 13 13 12 13 15 13 14 11 11 11 11 11 12 11 10 8 8 9 8 9 14 14 14 11 11 10 10 9 11 11 8 7 6 6 5 3 3 3 5 5 4 9 11 12 8 7 9 11 10 14 13 14 16 12 12 18
25 26 26 24 23 24 24 24 24 24 24 24 22 24 24 24 23 21 20 19 20 19 19 18 17 16 17 17 15 13 13 12 16 16 16 16 14 12 13 11 10 11 12 12 11 9 6 7 7 11 12 11 11 11 10 9 8 8 9 9 9 8 7 5 5 5 5 3 4 4 4 8 14 10 8 11 11 10 12 13 13 15 17 17 22
26 25 24 23 24 26 25 24 24 24 24 26 26 25 24 23 22 22 21 19 19 18 19 20 18 16 16 15 15 15 13 12 18 18 17 17 14 15 12 13 11 11 11 12 12 10 9 8 6 8 9 9 8 8 8 7 7 7 6 6 6 6 6 7 6 5 5 5 5 7 4 8 10 11 10 7 12 14 15 13 12 12 16 15 18
25 24 23 24 25 26 24 27 27 25 25 25 25 25 24 22 22 22 24 22 19 21 21 19 18 16 17 17 16 15 13 14 18 19 18 18 17 14 12 12 14 13 13 12 12 11 9 10 7 7 8 13 9 6 6 4 3 5 6 6 6 7 8 10 9 9 9 5 5 7 6 5 7 11 7 8 9 11 12 14 13 14 13 14 16
25 24 23 24 25 25 25 27 28 28 27 26 24 23 24 26 26 24 23 20 21 19 20 22 18 18 19 18 17 15 14 15 19 19 19 19 17 14 14 14 13 13 12 12 12 12 11 11 10 8 5 5 6 6 5 5 5 4 3 4 5 6 7 8 10 11 8 9 7 6 6 6 9 9 15 8 8 12 11 13 13 12 16 18 18
23 23 24 23 23 25 28 28 28 27 28 26 25 25 25 25 24 23 23 24 23 23 22 19 19 18 17 17 17 17 17 18 20 20 19 18 19 14 12 12 12 12 12 12 13 13 11 12 11 12 9 7 7 9 8 7 6 5 4 3 4 5 4 3 5 6 7 7 8 10 12 8 9 12 13 12 8 10 8 12 12 11 15 15 14
24 22 24 24 24 25 27 28 29 27 26 27 30 27 27 26 26 23 22 20 19 20 19 20 21 20 18 18 18 18 15 20 20 20 20 19 19 13 13 13 12 12 11 10 12 13 13 13 12 10 10 9 9 12 10 9 7 6 4 2 5 5 4 5 3 6 7 8 9 9 10 10 9 13 14 12 10 9 9 8 7 5 8 14 17
24 25 25 25 25 26 27 28 28 28 29 30 28 29 28 26 24 25 23 21 21 20 23 22 20 20 19 19 20 18 15 18 21 21 21 21 15 12 13 12 11 13 13 13 12 11 11 11 11 11 9 9 11 13 12 10 7 6 6 3 3 3 5 6 6 6 7 8 9 10 13 13 13 13 14 13 10 7 3 11 13 9 11 12 15
25 24 25 25 27 27 26 26 27 26 26 31 31 28 28 27 28 26 26 24 22 23 21 18 17 18 20 20 22 21 18 18 21 23 22 21 18 16 14 14 12 13 12 11 11 11 12 17 13 12 12 11 11 14 13 11 7 7 6 4 3 5 7 7 6 4 6 8 9 10 13 14 15 15 14 14 12 5 2 9 11 7 13 10 15
24 26 25 23 25 28 27 26 26 27 27 27 28 29 29 28 23 21 23 23 23 21 18 19 17 15 17 19 14 20 18 18 19 20 20 21 20 14 14 13 14 12 12 12 8 10 10 13 16 14 13 13 15 15 14 11 9 8 8 6 4 3 7 2 3 8 12 16 15 17 16 16 15 11 13 15 14 7 8 7 5 5 10 13 12
24 20 21 22 20 22 24 25 24 25 28 29 26 24 23 23 24 24 19 18 18 17 18 18 20 18 16 16 19 20 20 18 19 20 21 22 20 18 15 15 15 14 13 13 12 8 9 10 14 15 15 16 16 17 15 13 11 8 7 7 6 5 5 3 3 2 5 4 8 7 10 11 11 10 9 10 12 8 9 6 6 5 6 10 12
20 20 21 22 23 21 21 24 27 27 28 28 24 22 20 21 20 22 20 17 16 15 15 15 16 15 14 14 15 15 18 21 19 21 21 22 21 18 16 18 16 15 14 12 12 11 10 11 9 12 16 16 17 17 16 14 10 11 10 9 11 7 8 3 2 4 4 6 6 8 11 11 11 9 9 9 10 11 11 10 8 6 5 7 10
20 20 21 21 20 20 19 18 27 31 28 25 22 18 15 17 21 21 18 18 20 20 17 17 17 14 12 13 14 16 13 19 21 20 21 21 20 20 17 17 17 17 14 11 10 10 12 12 10 12 15 17 18 17 17 14 12 9 12 10 8 9 7 4 3 3 4 5 8 9 11 11 12 13 12 11 11 12 11 11 11 11 8 9 8
21 21 20 21 19 18 18 22 22 22 21 22 25 21 17 20 16 17 19 19 19 18 17 16 17 16 14 12 12 14 14 16 19 21 19 20 21 18 16 13 12 16 16 14 13 13 9 10 10 12 16 16 17 18 17 16 11 10 11 8 9 8 4 3 3 3 6 6 6 9 10 10 10 12 13 13 13 11 12 12 11 10 11 13 7
21 21 21 21 20 19 20 22 23 24 23 18 18 20 20 21 18 17 18 20 20 18 16 16 16 18 18 13 11 11 11 14 13 18 19 20 18 17 15 15 14 11 12 14 13 12 11 10 11 13 16 16 17 16 16 13 15 13 9 9 8 7 4 3 2 3 4 5 8 9 10 11 9 12 13 12 11 12 13 11 12 11 10 12 14
22 22 22 20 19 19 19 21 24 25 24 26 24 21 18 19 21 17 19 18 18 18 17 17 18 17 15 16 15 12 11 11 11 13 16 18 18 16 14 15 15 14 12 7 8 12 11 12 12 13 15 15 16 13 10 12 14 9 9 9 8 4 5 4 4 2 6 9 9 9 11 13 13 14 13 11 12 10 8 12 12 14 12 11 13
21 22 21 20 21 22 23 21 20 21 23 20 20 21 24 22 21 20 19 18 18 20 19 17 16 15 17 16 16 16 13 12 12 11 11 12 12 14 15 16 15 15 13 13 11 11 12 12 14 13 12 13 10 7 8 13 11 8 8 8 6 7 7 6 4 4 10 10 10 12 14 11 13 12 8 7 9 13 7 9 11 16 14 15 20
20 20 21 22 21 22 25 23 22 19 16 16 17 19 21 20 19 19 20 20 19 18 18 17 16 16 17 16 13 12 12 11 11 10 10 11 12 11 13 12 11 11 11 11 10 10 10 9 10 10 8 14 15 11 10 7 6 7 6 7 8 9 9 9 10 10 11 11 12 13 12 12 10 12 13 9 10 12 2 5 8 11 11 12 10
22 20 20 21 21 21 22 20 24 22 21 22 21 19 18 20 23 25 26 25 24 22 21 20 20 21 22 18 15 13 12 13 13 16 15 15 14 12 13 14 13 12 13 10 9 7 8 7 8 6 7 8 7 4 5 6 6 6 8 7 9 8 8 6 6 8 12 11 11 10 12 11 11 13 9 9 10 12 4 6 5 11 10 8 14
21 20 20 20 20 19 21 22 20 21 19 16 14 18 24 26 24 20 15 19 24 27 25 21 19 18 16 17 18 17 14 17 23 13 19 14 19 17 15 16 14 13 12 12 8 5 7 9 8 7 8 9 10 10 10 9 9 9 8 8 9 9 8 7 11 13 13 9 12 13 14 10 12 9 7 9 11 11 4 8 6 5 12 5 7
24 24 21 20 20 20 20 19 17 17 19 19 18 11 6 6 7 14 15 12 13 11 15 26 25 21 19 17 20 25 28 28 13 17 16 17 17 20 18 16 15 14 12 16 11 9 7 9 8 10 9 9 11 11 12 12 11 11 11 6 7 9 9 9 11 13 10 11 12 10 13 10 11 11 9 10 11 11 5 2 8 5 7 10 11
23 24 22 20 22 24 22 20 17 16 16 16 15 15 12 9 9 10 8 10 14 16 13 11 14 13 19 18 14 12 7 12 18 19 18 19 20 19 18 17 17 16 15 15 7 12 11 11 10 9 9 9 10 12 11 11 11 11 12 9 8 10 9 9 13 10 11 11 11 11 11 10 13 11 10 11 11 11 11 7 5 8 8 7 9
23 21 23 22 22 19 20 20 19 18 16 15 16 16 16 14 8 6 9 14 12 13 13 13 16 16 14 12 12 10 11 14 16 19 20 19 20 19 18 17 18 18 18 17 16 14 12 12 12 12 11 11 13 11 11 11 11 11 11 8 11 10 11 13 11 9 10 10 11 10 12 12 12 11 11 11 8 9 9 11 10 10 11 9 10
23 22 20 21 20 18 18 19 18 19 20 19 17 17 19 18 19 12 7 6 10 12 13 13 16 18 16 15 17 16 14 15 20 19 20 20 20 19 18 17 17 18 17 14 14 12 12 12 14 13 14 15 14 14 13 12 12 11 10 11 10 10 11 12 5 8 9 13 10 11 11 10 11 11 9 9 8 9 9 10 9 7 6 9 12
25 24 22 22 21 20 19 19 20 19 19 20 20 21 20 19 19 17 16 12 9 6 7 14 17 16 15 16 17 16 16 17 18 19 20 20 20 18 18 17 14 19 20 20 15 15 13 14 14 14 15 13 12 12 12 12 11 11 10 11 11 10 11 7 5 11 12 11 11 12 11 11 10 11 11 10 8 8 10 10 8 6 10 10 10
15 16 24 24 24 23 21 21 20 19 18 17 17 17 18 16 16 18 20 21 20 21 18 17 13 15 18 13 14 17 18 18 20 20 21 20 20 16 13 14 11 8 12 10 14 16 16 16 17 15 13 14 14 13 14 12 12 12 12 11 10 10 10 9 10 10 11 10 10 11 12 12 12 11 11 11 8 8 11 10 9 7 8 11 9
16 17 16 17 18 18 20 20 19 20 20 19 19 18 15 15 17 17 14 13 16 16 12 13 12 7 11 11 13 16 17 19 20 20 20 19 17 20 16 13 10 13 14 13 14 15 14 15 14 14 12 12 11 12 13 13 14 13 12 11 11 10 10 10 11 10 9 10 11 11 8 10 10 10 9 6 8 10 10 9 8 9 8 8 6
18 17 17 14 13 14 14 14 16 17 13 15 17 17 17 16 15 14 14 15 14 13 13 10 11 9 8 9 9 10 14 18 19 19 18 18 23 23 18 19 18 16 16 17 17 15 15 15 13 12 12 13 13 13 12 13 12 12 9 11 10 10 12 11 10 7 8 11 12 10 10 12 10 10 11 11 10 10 10 8 6 8 8 8 5
19 20 18 16 14 13 14 15 14 11 14 15 15 15 14 14 14 14 14 15 15 14 14 14 10 16 16 13 11 11 10 5 8 10 10 9 15 14 13 13 15 17 19 17 17 16 17 14 12 14 14 13 14 13 12 12 11 11 11 10 9 11 10 11 9 10 8 11 12 11 12 12 11 10 9 10 11 11 11 9 6 9 10 9 6
12 11 13 15 11 15 14 13 14 15 13 13 12 13 13 13 14 14 14 13 12 13 12 13 16 17 15 11 10 9 14 10 11 12 12 13 14 14 13 13 14 14 13 14 13 14 15 15 14 13 12 13 13 12 13 12 11 11 11 10 10 9 10 10 12 11 9 11 12 11 11 12 11 9 10 11 10 9 9 8 7 7 8 9 10
14 13 13 14 12 12 12 12 13 13 12 14 13 13 13 14 15 15 14 14 16 16 16 18 19 17 13 14 12 14 13 14 13 14 14 14 15 14 12 13 14 14 15 13 13 14 14 14 13 13 15 15 14 13 12 12 12 13 11 10 11 12 13 10 11 10 12 13 12 11 11 12 11 10 9 10 12 10 9 9 9 8 8 6 9
13 14 11 10 11 15 12 14 14 15 14 14 13 14 16 16 14 12 13 12 12 14 15 14 13 11 12 15 15 17 16 15 13 13 15 16 15 15 15 14 14 14 13 13 13 12 14 13 12 13 12 12 12 12 11 12 11 10 10 11 10 11 12 10 10 12 12 11 12 11 12 12 10 10 11 13 9 9 9 8 7 5 8 6 6
15 15 15 14 15 14 14 14 13 13 12 12 14 15 13 13 13 14 15 15 15 16 14 12 11 11 12 17 17 17 13 10 11 12 11 11 13 15 15 15 14 15 14 15 15 15 14 13 13 12 13 13 12 12 10 10 10 10 11 10 11 11 11 12 11 11 11 12 12 12 12 12 12 12 13 7 9 10 9 9 11 10 6 6 5
13 14 14 14 14 15 15 13 12 13 12 12 13 8 10 13 13 13 13 13 13 13 12 13 11 11 14 12 17 15 13 10 8 13 13 14 14 13 14 16 16 16 15 14 12 13 13 13 13 13 14 15 14 14 15 14 12 11 10 10 11 11 12 12 11 12 11 11 12 11 11 10 11 11 11 9 10 8 10 10 7 8 9 7 6
13 12 12 12 11 10 10 13 14 14 15 13 12 11 12 12 12 12 13 13 14 14 15 15 13 14 14 15 12 12 12 11 11 13 13 13 14 15 17 17 15 12 12 11 11 11 12 11 12 13 12 13 12 10 11 12 11 11 11 11 11 11 12 12 12 13 12 13 12 11 10 10 9 9 8 8 6 7 10 6 8 9 8 8 4
13 13 13 12 11 12 11 9 10 11 10 10 10 10 10 13 12 13 13 14 12 13 14 13 12 13 12 11 12 15 15 14 13 12 13 15 16 17 16 14 14 14 13 12 11 10 11 12 12 11 12 12 11 11 11 11 11 12 12 12 12 12 13 13 14 13 11 10 11 10 10 11 10 10 10 10 7 9 10 10 11 8 7 6 5
13 12 12 11 10 9 10 11 10 12 12 12 12 12 12 13 14 14 14 13 14 15 15 15 14 15 15 15 15 15 16 14 13 14 13 12 13 15 14 14 13 12 13 13 12 12 12 12 13 13 14 13 12 12 12 10 11 12 11 12 13 14 15 14 11 9 11 11 12 12 11 9 10 10 10 11 9 10 10 9 5 7 9 8 8
11 11 12 11 11 10 10 10 10 10 11 11 11 12 13 14 14 12 12 16 16 14 15 15 14 15 15 14 14 15 15 15 14 14 16 16 15 14 13 13 13 13 13 13 12 13 13 13 12 12 13 13 12 12 12 11 10 11 10 12 14 15 15 12 11 13 13 13 11 10 10 11 11 10 11 9 7 10 8 10 9 8 9 10 10
11 11 10 10 10 11 10 10 11 9 9 10 12 12 13 13 13 13 13 14 15 14 15 15 15 13 12 13 14 14 14 15 14 13 13 13 14 14 14 13 12 14 12 12 12 13 13 13 14 13 13 13 12 13 14 13 11 12 12 13 13 14 16 12 11 13 12 11 11 12 11 11 10 10 9 9 9 9 9 11 9 8 8 9 8
12 12 13 13 12 12 12 12 12 14 14 12 10 10 10 12 13 13 14 15 15 14 14 13 12 12 13 15 15 15 14 13 14 14 14 14 14 14 14 13 12 12 11 13 14 14 15 15 14 14 15 15 14 15 15 14 14 13 13 13 14 16 17 16 12 14 13 11 10 9 8 8 9 10 9 8 10 10 10 7 6 7 6 6 6
10 10 10 11 11 10 9 10 10 10 8 9 11 11 10 9 10 10 12 12 12 12 13 12 12 13 14 14 13 14 13 14 16 16 15 15 15 14 13 12 12 13 13 14 15 14 14 14 14 15 14 14 14 15 15 15 15 15 13 16 15 16 16 17 17 16 14 10 12 12 12 11 9 9 9 10 8 8 8 9 9 7 7 7 8
11 11 11 11 10 10 10 11 11 10 10 10 11 12 12 12 11 10 9 10 11 12 12 12 11 12 13 14 13 14 16 16 16 15 14 14 14 13 13 13 14 13 13 14 14 13 13 13 14 14 14 14 14 15 14 15 15 16 14 16 17 16 17 15 15 14 16 12 10 10 11 12 9 10 9 9 8 9 12 11 8 8 9 10 8
Wind_Speed
15 14 13 13 13 14 13 12 13 11 11 12 12 11 10 10 11 10 9 9 9 9 8 8 7 7 7 7 7 7 6 6 4 5 5 5 4 5 5 5 7 5 5 4 4 5 5 5 4 3 3 6 4 5 5 5 5 5 5 5 6 3 5 5 6 4 1 1 1 2 3 2 3 2 5 5 6 7 7 6 5 6 7 7 7
14 14 13 13 14 14 14 12 12 11 12 12 11 11 10 10 10 9 10 9 9 9 9 7 7 8 7 7 7 6 6 6 5 5 6 6 5 4 6 6 6 5 5 5 4 4 5 6 4 3 3 6 4 5 5 5 5 6 5 6 5 3 1 4 3 2 1 2 4 3 2 1 3 1 3 5 7 6 8 7 6 5 6 7 6
14 13 13 13 14 13 13 13 13 13 13 11 12 11 11 11 11 11 10 9 8 9 9 8 8 8 7 7 7 6 7 6 5 6 6 7 7 5 5 6 7 7 6 6 5 4 5 5 4 4 3 6 4 4 4 5 5 7 5 4 5 4 4 4 4 3 3 0 1 2 2 2 1 3 5 3 4 4 5 7 6 7 7 6 6
14 14 13 14 13 13 13 13 14 14 13 11 13 12 11 11 11 11 10 9 9 7 8 9 8 8 8 7 7 7 6 6 6 5 7 7 7 7 5 5 6 6 6 6 5 5 6 6 4 4 5 6 4 4 4 5 6 5 5 3 5 5 4 4 3 4 1 1 1 1 2 2 3 3 3 3 3 6 4 6 6 7 8 7 6
14 14 15 15 14 14 14 14 14 15 15 12 13 12 12 11 10 11 10 9 9 8 7 7 8 8 8 8 7 7 7 7 7 5 5 5 7 7 6 6 5 5 5 6 6 6 6 6 5 4 6 7 4 5 4 5 4 5 5 4 5 4 3 4 4 3 4 2 1 2 2 2 3 3 1 4 6 5 4 5 6 6 8 8 6
15 15 14 15 14 15 15 14 15 15 15 13 14 13 11 11 11 9 11 11 9 9 10 8 8 8 8 8 8 8 7 7 7 7 7 6 6 6 6 5 5 5 5 5 5 5 6 6 5 5 6 7 5 4 5 6 4 5 5 4 4 4 5 3 3 3 3 1 1 1 2 2 3 2 1 3 4 5 7 8 8 4 4 9 10
15 15 14 15 14 15 15 15 14 14 14 13 12 11 11 11 12 11 10 11 11 10 8 9 7 8 8 8 8 8 8 7 7 7 7 6 6 6 6 5 5 5 5 5 4 4 5 6 5 5 6 6 7 6 5 5 5 5 5 5 4 5 4 3 3 3 3 1 1 1 2 2 1 4 4 4 3 2 2 8 8 8 7 5 8
15 15 15 15 15 16 15 14 13 13 12 12 13 12 12 12 12 11 11 11 11 11 11 10 8 7 8 8 8 8 8 7 7 7 7 7 7 6 6 6 6 5 5 4 4 5 5 5 5 5 6 6 6 5 6 6 4 5 4 4 4 5 4 3 3 3 2 1 0 1 2 2 4 3 3 3 5 5 2 1 6 8 9 8 6
16 15 15 15 15 15 13 12 12 12 13 13 13 12 12 12 12 12 12 11 9 10 10 10 9 8 7 8 8 7 8 8 7 7 8 7 6 7 6 6 6 6 5 4 4 5 5 5 5 5 4 7 9 7 7 7 6 6 3 4 4 5 3 3 3 3 2 1 1 1 1 3 2 3 6 3 5 5 5 1 4 6 6 7 10
15 15 16 15 14 13 13 12 13 13 13 14 15 14 12 12 12 12 12 12 11 10 10 9 10 11 10 8 8 7 7 6 8 13 10 8 7 6 6 6 6 6 6 5 4 4 5 5 5 9 9 10 9 9 9 8 7 7 6 5 4 4 4 3 2 2 1 1 1 1 3 5 4 2 2 3 3 4 6 5 6 7 6 6 8
15 15 15 14 13 13 13 13 13 14 14 13 13 14 14 13 13 12 12 11 12 11 11 11 10 10 11 10 9 8 7 7 13 14 14 14 9 7 7 7 6 6 6 6 6 5 4 4 4 6 7 7 7 10 9 8 8 8 8 7 6 5 4 3 2 3 3 1 2 1 1 3 5 2 3 5 3 3 3 4 5 5 5 6 7
15 15 14 13 13 14 13 13 14 14 14 14 14 14 12 11 12 13 12 12 11 10 12 12 11 10 9 9 9 8 8 10 15 15 14 15 12 9 7 7 6 6 6 6 6 5 5 4 3 3 5 5 5 5 6 6 7 6 6 6 5 6 5 4 3 3 3 2 1 2 1 2 3 4 3 1 5 6 5 5 3 3 5 5 6
15 14 13 13 13 13 13 14 14 14 14 14 13 13 12 12 12 13 14 13 11 12 10 8 9 9 9 10 9 8 8 12 15 15 15 15 15 11 7 7 8 7 8 8 6 6 5 5 4 3 4 9 5 4 4 3 3 5 5 5 5 6 7 7 7 3 5 3 2 1 4 1 2 3 1 1 0 3 4 6 5 6 4 6 6
15 14 14 14 14 13 13 14 14 14 13 13 13 13 14 14 14 13 13 12 12 11 13 14 11 11 11 11 10 9 8 12 16 16 15 16 15 11 8 9 8 8 8 7 7 7 6 6 6 4 3 3 4 4 3 4 3 3 2 2 2 1 3 7 8 7 5 4 3 2 3 3 3 4 3 0 2 3 3 5 5 5 7 7 8
13 13 14 14 14 14 13 14 14 14 14 14 13 14 14 14 14 13 12 13 13 13 13 12 11 11 10 10 9 10 8 14 16 16 15 15 15 12 7 7 7 7 7 7 8 8 7 7 7 7 6 4 5 5 5 4 4 3 3 1 1 1 1 2 4 4 4 4 4 5 4 4 5 6 6 3 4 5 4 5 4 4 6 7 7
13 12 13 13 14 15 15 14 14 15 15 14 14 14 14 15 16 13 12 11 11 11 11 11 12 12 11 10 10 10 8 16 16 16 16 15 15 8 8 8 7 7 6 6 7 8 7 7 7 6 6 6 6 10 8 5 4 4 3 1 1 1 1 2 3 4 4 5 5 5 5 4 6 6 6 5 4 4 3 3 2 1 3 7 7
14 14 14 14 14 14 15 16 14 15 15 15 15 15 14 13 13 11 12 11 12 12 12 12 11 11 11 11 11 10 8 14 17 17 17 18 13 7 7 7 7 8 8 8 7 6 6 6 7 6 6 6 7 10 10 8 4 4 4 2 0 0 2 1 2 3 6 7 7 8 9 10 10 11 10 10 6 4 1 6 7 3 6 6 7
15 14 14 14 14 15 14 15 15 14 15 16 16 16 16 15 15 13 14 12 12 12 12 10 10 10 12 12 12 11 10 13 18 18 17 16 14 10 8 8 7 8 8 7 6 6 6 11 8 7 7 7 9 11 11 8 5 4 4 3 2 1 2 2 2 2 3 4 6 7 9 9 9 10 7 6 7 5 1 4 4 2 6 4 5
14 15 14 13 13 14 14 13 14 16 16 16 16 17 17 15 12 10 10 11 11 10 8 10 9 8 10 10 9 11 10 12 16 17 17 17 13 8 8 8 8 7 7 7 5 6 5 8 12 10 9 9 12 12 12 8 5 5 5 4 3 2 3 1 1 2 3 4 2 4 3 4 5 5 6 11 4 4 3 3 2 1 4 6 5
14 11 10 11 11 12 12 13 11 13 16 15 11 10 8 7 6 9 8 8 9 10 11 10 11 10 9 9 10 11 11 10 13 17 18 18 17 10 8 9 9 8 7 7 7 5 5 6 9 13 13 12 13 14 13 11 7 5 4 4 4 3 3 2 1 1 1 1 3 3 5 5 5 4 5 5 6 1 2 3 3 3 3 5 6
9 10 9 10 10 12 12 13 12 12 15 15 13 11 10 8 9 12 12 9 9 8 8 7 8 7 7 8 9 9 10 12 12 17 18 18 17 15 9 10 9 9 8 7 6 6 6 6 6 10 13 12 14 14 13 12 8 6 6 5 6 3 6 3 1 3 1 1 2 4 5 5 4 4 5 5 6 5 3 0 2 4 3 3 6
9 9 10 11 11 11 12 11 16 15 10 9 8 7 5 7 9 9 8 7 9 9 8 10 10 8 7 8 9 10 9 14 12 15 17 17 17 17 10 9 10 9 8 7 6 6 7 7 6 9 13 13 14 14 14 12 11 5 7 8 6 7 4 2 2 1 2 2 4 5 6 6 6 6 6 6 6 6 4 5 4 2 4 5 4
10 11 11 12 12 11 11 13 10 7 11 13 14 12 10 10 10 10 9 9 8 8 8 9 9 9 8 7 7 8 8 10 15 14 15 17 17 16 14 10 11 9 9 8 8 7 6 6 6 10 13 13 14 15 14 13 9 7 9 7 8 7 4 2 1 1 2 2 3 5 6 5 5 6 6 6 7 5 6 6 6 4 3 3 4
12 13 13 13 12 11 11 12 14 11 9 6 9 12 12 11 10 9 9 11 11 10 7 7 8 9 10 7 6 6 6 8 10 15 14 17 15 15 13 13 12 7 7 7 7 7 7 6 7 11 13 14 14 13 13 11 9 11 8 8 8 6 2 2 1 0 0 1 3 4 6 6 4 6 6 5 5 6 7 6 7 5 4 6 7
13 12 12 11 11 11 11 12 13 12 13 14 11 9 9 11 10 9 10 10 10 10 10 10 10 9 8 9 8 7 6 6 6 9 13 14 15 13 12 13 13 12 7 4 5 7 8 11 11 12 12 13 13 11 8 10 12 8 7 8 7 3 3 2 2 1 1 4 4 5 6 7 6 6 6 5 5 5 4 6 5 4 4 4 5
12 13 12 11 12 13 12 10 11 13 14 11 11 10 12 11 11 10 10 9 9 10 10 9 8 8 9 8 8 8 7 7 7 7 7 9 8 10 11 12 12 12 10 8 10 9 10 10 12 11 10 9 6 4 5 7 9 7 7 7 4 4 3 3 2 2 5 5 5 6 7 6 6 5 4 4 5 7 4 3 5 7 6 7 8
8 8 11 12 12 13 14 12 10 8 8 8 9 10 11 11 11 11 10 10 10 9 10 10 8 8 8 8 7 6 6 6 6 6 6 7 7 7 7 6 6 7 5 4 6 5 6 6 7 8 7 10 10 8 8 5 4 4 4 4 5 5 4 5 5 5 5 6 6 6 6 6 4 5 6 4 6 6 1 2 3 5 4 5 4
5 8 10 11 11 12 11 14 14 11 11 11 10 9 9 11 12 13 13 13 12 11 11 11 11 11 11 9 8 7 7 6 7 8 8 7 7 7 6 6 7 7 6 5 5 3 3 4 4 3 3 3 3 2 4 3 4 4 4 4 4 3 3 4 3 3 5 5 6 5 6 5 6 6 5 5 6 7 2 1 1 5 4 3 5
13 11 10 10 11 11 12 12 10 10 10 8 8 9 11 13 13 10 8 10 12 14 12 9 10 10 9 9 10 8 6 8 11 9 10 11 11 9 8 8 8 7 9 10 5 3 4 4 3 3 3 4 4 6 5 5 6 5 4 4 4 3 3 3 5 6 6 4 6 6 7 5 6 5 4 5 6 6 0 1 1 2 4 1 2
15 14 12 11 11 11 11 10 10 10 10 10 9 6 6 4 3 7 8 7 9 9 13 13 13 10 9 8 9 12 13 11 8 13 13 14 14 16 15 14 12 10 10 14 8 6 4 5 5 5 5 5 6 6 7 7 7 6 6 4 3 3 4 5 6 7 5 6 6 5 7 5 6 6 5 6 6 6 2 1 2 1 2 3 5
11 12 12 11 13 13 12 11 10 9 9 9 8 8 7 5 8 9 8 8 12 14 12 9 12 12 11 9 7 6 5 11 14 16 15 16 16 16 15 15 15 14 13 9 3 6 5 6 6 5 6 6 6 7 7 7 7 7 7 4 3 4 4 6 7 5 5 5 6 6 6 6 7 7 6 6 6 6 3 1 1 2 3 2 4
10 10 12 12 12 11 10 11 11 10 8 8 8 9 8 8 4 5 7 12 11 12 12 12 14 14 12 10 9 6 7 10 13 16 16 16 16 16 14 14 14 15 15 14 8 7 6 6 6 6 6 6 7 5 6 7 6 6 5 3 5 5 5 6 6 5 6 6 6 6 6 6 7 7 6 7 5 6 5 5 4 4 4 2 3
11 10 10 11 12 11 11 10 10 10 11 10 8 8 9 9 9 6 4 4 7 9 10 11 14 15 14 13 15 13 12 11 14 15 16 16 15 15 14 14 14 14 13 8 7 7 6 6 7 6 7 7 6 6 6 6 6 6 6 6 6 6 6 6 4 5 5 6 5 6 6 6 6 6 5 5 5 6 4 4 5 4 3 3 6
11 11 10 12 11 10 10 10 10 10 10 10 11 11 10 10 10 9 9 6 4 2 3 9 13 14 13 14 13 12 11 11 13 14 15 15 14 13 12 8 10 14 14 10 8 8 7 8 7 7 7 6 6 6 6 6 6 6 6 6 6 6 5 2 3 6 6 5 5 6 6 6 6 6 6 6 5 3 3 5 4 4 4 3 3
7 11 17 15 11 11 11 11 10 9 9 9 9 9 9 8 8 10 11 11 11 11 8 5 6 11 10 9 10 12 12 12 13 13 14 14 13 12 11 8 6 3 3 3 6 7 8 8 8 8 7 7 7 7 7 7 6 6 7 6 6 6 5 4 6 5 6 4 4 5 6 6 6 6 6 7 5 4 6 6 6 4 3 4 3
9 8 7 9 9 8 8 8 8 9 10 9 10 10 8 8 9 8 6 6 7 7 4 3 5 4 8 8 11 11 12 12 13 13 14 12 14 16 8 6 5 6 6 7 6 6 6 6 7 7 7 7 6 7 7 7 8 7 7 6 7 6 6 6 6 5 5 4 5 6 5 5 6 6 6 4 5 6 5 6 5 3 3 4 3
9 8 7 7 7 7 7 8 8 9 9 8 8 7 6 6 7 7 7 8 8 6 6 6 6 5 4 2 6 7 8 9 10 10 9 12 18 12 8 9 9 8 8 7 7 7 8 8 7 6 6 7 7 7 7 7 7 7 6 7 6 6 6 6 5 4 4 5 6 4 5 6 5 6 7 7 6 4 6 5 4 4 4 4 3
9 10 9 8 7 7 7 6 6 7 7 7 6 7 7 7 8 8 8 7 8 7 7 6 6 7 8 7 6 6 6 5 8 8 8 7 6 4 5 6 7 8 9 8 8 8 9 7 7 7 8 7 7 7 7 7 6 6 6 6 6 7 6 6 5 4 4 6 6 6 5 6 6 6 6 7 6 6 7 6 4 4 4 3 2
6 8 10 11 8 8 7 8 8 7 7 7 7 7 7 8 7 7 7 6 6 6 6 6 6 7 6 6 6 6 8 5 6 6 5 6 7 7 6 6 6 6 6 6 7 7 7 7 7 7 6 6 7 7 7 7 6 7 7 7 6 5 6 6 6 5 4 6 6 6 6 6 6 6 7 7 6 6 6 5 4 4 5 5 5
8 7 9 11 8 8 7 6 7 7 7 8 7 7 7 7 8 8 7 7 7 7 6 6 6 6 7 8 7 7 8 8 7 6 6 6 7 7 6 7 7 7 7 6 7 7 8 8 7 7 8 8 8 7 7 7 6 7 7 6 6 6 6 5 6 5 6 5 6 6 6 6 6 6 5 5 7 6 6 6 6 5 5 5 5
7 8 8 8 9 8 8 8 7 7 7 7 7 7 7 7 7 7 6 7 7 7 6 6 6 6 7 8 9 10 8 7 7 7 8 8 7 8 8 7 7 7 7 7 7 7 7 7 7 7 7 7 7 7 7 7 7 6 6 6 6 6 6 5 5 6 6 6 6 6 6 6 5 6 7 7 6 6 6 5 4 4 5 4 4
8 8 8 8 9 8 8 6 6 7 7 5 7 7 6 6 6 6 6 6 6 6 6 5 5 5 8 14 14 14 8 6 6 6 5 5 6 7 7 8 7 8 8 8 8 8 8 7 7 7 7 7 7 7 7 6 6 6 6 5 5 6 6 6 6 6 6 6 6 6 6 6 6 7 8 6 6 6 5 5 7 6 5 4 4
7 7 8 8 7 7 7 7 7 7 7 6 6 5 6 7 6 6 6 6 6 6 6 6 6 6 8 9 10 11 6 4 4 6 6 6 6 6 7 8 8 8 8 8 7 7 7 7 7 7 8 8 8 8 8 8 7 6 6 6 6 6 7 6 5 6 6 6 7 6 5 5 6 6 7 6 5 5 5 6 5 5 6 5 4
7 7 7 6 6 6 6 6 6 6 6 6 6 6 6 6 5 5 5 5 5 6 6 7 7 7 5 6 7 7 6 5 5 6 6 6 6 7 7 7 7 6 6 6 6 6 7 6 7 7 7 7 7 6 7 7 6 6 7 6 6 7 7 6 6 6 6 7 7 6 5 5 6 5 5 5 4 4 6 5 5 6 6 5 3
7 7 7 6 6 5 5 5 5 5 6 6 5 5 6 6 6 6 6 5 6 6 6 6 6 6 6 6 6 7 7 6 6 6 6 7 7 7 7 6 6 6 6 6 6 6 6 7 6 6 6 7 7 7 7 7 7 7 7 7 7 7 7 7 7 6 5 5 5 5 5 6 6 7 6 5 4 5 7 6 7 6 5 4 3
6 6 6 6 6 5 5 5 5 6 6 5 5 5 5 5 5 6 7 7 7 7 6 6 6 6 6 6 7 7 7 6 6 6 6 6 7 7 6 6 6 6 6 6 5 6 7 7 7 7 7 7 7 7 7 7 7 7 7 7 8 7 7 6 4 4 5 5 6 6 7 6 6 6 7 7 6 6 6 6 4 5 5 5 5
6 5 6 6 6 6 6 6 6 5 5 5 5 5 5 5 5 5 6 7 7 6 6 6 7 7 7 7 6 6 6 6 6 7 8 8 7 6 6 5 5 6 6 6 6 7 7 7 7 7 7 7 7 7 7 7 6 7 7 7 6 7 6 5 5 5 5 6 6 6 6 7 7 6 6 5 4 6 5 6 6 6 6 6 6
5 5 5 6 6 6 6 6 6 6 5 5 5 5 5 5 5 5 5 6 6 6 6 6 7 6 6 6 6 6 6 6 6 6 6 6 7 6 5 6 6 6 6 6 6 6 7 7 7 7 7 7 7 7 7 7 6 7 7 7 7 7 8 8 5 5 5 5 6 7 7 7 6 5 5 5 6 5 5 7 5 5 5 5 6
5 5 5 5 5 6 5 6 6 7 6 6 5 5 5 5 5 5 5 6 7 7 7 6 6 5 5 6 6 6 6 6 6 6 6 7 6 6 6 6 5 6 6 6 6 7 8 7 7 7 8 8 7 8 7 7 7 7 7 7 8 12 13 12 8 7 8 6 6 6 5 5 6 6 5 5 6 6 7 5 4 5 4 4 4
5 4 3 4 4 3 3 3 4 4 4 5 6 5 6 6 6 5 6 6 6 6 6 6 7 6 6 6 6 6 6 6 7 7 7 6 6 6 6 6 6 6 7 7 7 7 7 7 7 7 7 7 8 8 8 8 8 8 7 8 11 13 13 13 12 12 8 6 7 7 7 7 6 5 5 6 5 5 5 6 6 5 4 4 5
4 5 5 4 4 4 4 4 4 4 5 5 5 6 6 6 6 5 5 6 6 6 6 6 6 6 6 6 6 6 7 7 7 6 6 6 6 6 6 6 7 7 7 7 7 7 7 7 7 7 7 8 8 8 8 8 8 8 10 13 13 13 13 11 9 11 13 10 6 6 7 7 6 6 6 6 5 5 8 7 5 5 5 5 4
Wind_Direction
176 179 176 179 173 176 175 173 172 166 165 170 170 170 168 167 170 169 155 166 161 164 165 164 158 154 151 154 154 152 145 142 140 137 133 130 125 129 131 133 129 135 129 115 106 118 120 120 127 131 134 108 114 108 100 101 86 82 80 79 72 50 92 98 110 133 326 253 254 288 303 337 336 3 354 344 336 333 330 320 318 319 313 310 311
180 177 179 178 177 175 173 172 168 166 168 170 169 166 166 169 168 161 168 166 166 166 164 161 157 154 154 155 154 151 150 147 148 142 138 133 131 136 138 139 136 138 132 136 131 126 128 128 135 134 120 113 114 105 116 105 102 88 71 89 85 63 126 107 120 122 158 320 350 313 317 32 345 332 16 335 325 329 323 318 317 314 311 309 309
180 176 177 179 178 173 170 172 169 167 169 171 172 169 168 168 168 167 168 164 168 166 163 161 160 157 156 157 153 153 154 151 152 148 147 149 147 148 152 150 149 149 150 151 150 138 131 136 141 137 121 98 92 102 103 99 98 99 97 97 98 77 58 100 115 108 116 25 262 317 322 326 302 299 330 314 301 291 299 315 320 315 312 307 304
177 175 177 179 175 172 175 172 170 168 172 174 173 171 168 169 169 169 165 161 165 166 163 161 158 160 158 157 157 155 151 149 150 155 155 154 152 154 158 159 157 157 155 153 150 148 147 138 152 142 122 109 113 105 96 102 102 106 103 100 105 96 80 78 93 134 159 103 312 214 277 321 295 280 285 295 300 319 304 301 311 314 308 310 308
176 177 176 175 174 174 176 174 174 172 171 172 174 171 170 167 169 167 158 163 163 158 163 160 158 161 163 162 159 158 158 155 153 153 155 158 157 158 164 163 159 157 155 154 155 151 150 149 154 142 126 119 124 119 125 109 113 108 110 117 109 109 86 87 87 95 120 131 282 272 278 269 251 281 296 0 329 325 318 314 313 303 304 305 309
178 176 175 174 176 177 177 177 178 176 171 169 171 172 169 166 166 165 164 163 162 166 163 165 166 167 165 165 161 161 159 158 157 159 162 162 159 161 160 157 158 156 157 163 158 155 150 150 152 147 137 136 147 140 130 125 119 114 118 117 114 104 100 84 90 97 108 165 193 303 336 322 333 305 263 14 323 321 327 326 328 328 339 335 328
177 176 176 177 176 179 179 181 178 174 171 167 166 169 168 165 165 166 168 165 164 165 167 164 170 166 165 160 163 161 159 157 157 161 163 163 162 160 157 155 155 156 165 165 151 141 146 148 151 154 145 144 147 151 142 133 131 138 144 138 128 106 103 108 103 96 103 88 298 250 279 279 277 308 303 322 272 213 308 335 334 321 328 330 320
176 177 177 180 180 181 181 176 174 173 169 164 165 168 167 168 170 167 164 166 168 167 166 168 166 165 163 164 164 159 158 159 161 164 165 166 164 162 159 157 154 157 160 147 140 146 150 152 157 166 157 158 151 159 146 144 138 137 157 128 124 107 116 120 96 105 93 65 166 287 300 292 327 279 292 347 2 343 63 337 311 322 330 325 303
177 178 179 182 184 179 175 173 171 169 167 164 163 167 170 172 170 167 168 168 168 168 165 163 159 159 160 161 160 162 163 166 166 166 167 170 162 159 160 156 155 155 149 143 142 143 150 157 166 171 168 165 161 156 163 150 146 146 179 138 127 118 117 100 123 111 95 108 332 294 319 326 283 332 331 327 343 306 304 356 296 306 310 318 318
178 180 182 184 180 176 173 171 170 167 168 170 165 167 171 173 171 169 168 168 166 165 166 167 165 164 163 165 163 165 171 168 173 171 169 164 163 158 157 159 158 153 149 144 149 158 159 163 177 176 172 160 154 157 158 156 154 152 165 157 143 131 140 131 141 158 153 109 289 319 2 320 301 285 271 270 278 300 325 339 330 314 330 323 314
181 183 185 181 177 173 171 170 167 169 170 167 166 168 174 173 170 168 167 168 168 169 168 167 170 167 167 166 168 171 173 176 173 171 169 163 158 160 162 163 156 148 149 155 162 171 176 176 177 174 159 152 153 158 162 165 153 150 161 169 164 153 152 149 190 173 176 190 185 151 207 283 296 260 257 278 301 302 287 300 288 312 341 345 331
183 185 182 177 175 173 171 168 168 168 167 170 168 169 170 170 169 167 168 173 175 169 172 173 168 168 167 167 170 174 176 179 170 171 168 165 162 160 160 156 154 152 145 157 169 170 173 176 189 158 151 160 164 165 172 171 166 154 159 175 195 206 197 170 167 181 181 173 193 217 196 245 264 301 285 323 318 324 318 322 296 326 330 332 309
183 183 180 177 175 173 168 168 168 167 170 168 167 165 168 171 173 172 175 177 170 174 161 152 172 169 168 169 176 177 178 178 171 169 167 166 164 156 154 149 151 158 164 175 172 168 169 166 169 167 179 175 166 168 175 181 171 164 160 173 200 208 226 234 222 184 160 154 179 231 208 217 288 276 207 293 205 296 313 326 326 329 317 310 303
183 182 179 176 172 171 169 168 167 167 165 166 167 168 168 176 179 180 176 171 170 160 166 178 169 172 175 176 176 179 179 176 171 169 170 168 161 150 155 164 169 162 169 174 171 169 170 168 167 181 213 189 159 169 166 159 142 124 104 97 134 202 223 217 221 208 184 172 162 191 240 176 224 253 277 197 293 284 299 301 314 325 319 306 295
183 181 180 177 171 169 169 170 166 164 165 166 168 171 177 180 181 181 176 172 169 169 174 170 174 174 178 175 173 178 186 171 172 172 169 163 163 160 159 158 160 166 174 175 173 173 176 174 174 181 183 194 181 175 161 163 142 135 118 72 24 3 69 139 177 179 191 195 197 216 231 221 243 258 275 245 228 237 217 233 262 265 282 288 299
184 182 182 178 174 171 168 171 169 166 165 166 170 177 182 184 184 181 176 171 168 169 175 170 171 176 175 172 173 181 178 172 172 169 166 167 164 155 154 161 163 168 173 182 183 184 178 175 177 180 180 190 195 186 177 155 145 149 140 93 35 358 256 226 235 207 187 185 201 214 225 228 238 257 266 270 267 250 238 245 221 213 340 339 330
186 186 185 179 175 172 169 169 170 166 165 168 175 177 184 189 186 177 175 167 162 171 175 176 174 173 172 175 177 177 171 177 172 167 171 168 158 155 162 162 168 170 182 188 188 181 184 183 181 175 181 197 192 186 176 155 147 155 155 142 282 38 230 287 278 241 215 214 223 240 257 265 267 267 268 265 245 233 28 8 341 356 360 346 319
190 187 186 181 175 171 170 170 167 166 166 176 182 187 187 186 185 180 173 163 170 181 172 166 168 171 172 177 179 173 177 174 173 174 172 163 162 163 166 166 174 178 183 191 185 181 191 196 182 178 184 202 188 186 182 164 159 163 158 152 151 193 263 301 332 342 342 273 258 260 264 265 267 273 263 197 211 217 115 325 285 30 329 320 300
191 189 185 177 173 169 167 169 169 165 170 184 189 190 189 188 182 170 165 165 170 154 150 166 167 166 173 173 166 169 170 172 176 172 164 171 171 165 161 166 172 187 180 187 182 178 203 208 197 188 188 194 184 187 187 179 167 171 169 149 162 200 235 211 337 353 357 12 336 333 303 302 332 335 317 313 316 203 180 210 211 184 294 306 302
193 184 171 168 168 163 161 160 162 166 173 186 188 187 183 171 133 119 130 153 144 159 169 172 172 169 160 166 178 174 163 169 179 177 171 177 175 164 167 163 179 185 188 182 179 195 205 210 207 195 195 185 184 186 190 186 173 174 148 161 177 215 220 175 206 131 77 337 305 306 277 278 296 322 325 325 318 255 186 188 190 186 238 289 297
173 168 162 160 160 160 157 153 157 179 186 180 175 173 171 154 129 157 159 145 150 159 160 150 140 139 158 169 172 174 172 170 180 180 179 180 178 167 176 181 178 176 180 183 181 191 206 209 204 193 192 187 186 187 190 195 178 165 175 180 196 195 146 142 151 86 69 341 320 314 311 317 317 318 320 315 302 302 316 297 176 183 203 265 302
163 155 154 156 157 158 158 158 163 170 179 169 167 160 129 125 154 149 134 146 148 149 146 148 149 151 166 169 177 178 178 176 171 187 182 180 179 177 176 187 175 169 172 179 179 188 195 195 189 190 189 191 190 190 193 194 187 171 199 200 173 149 148 149 134 84 42 19 342 332 330 336 328 321 319 314 304 309 320 315 303 215 199 205 223
160 159 156 156 158 152 148 145 159 169 171 168 164 162 149 142 146 152 144 126 128 141 156 160 157 158 160 171 174 174 174 181 178 178 186 182 185 184 177 169 170 167 168 180 188 196 189 189 190 181 185 193 195 194 196 196 184 204 206 181 166 167 134 112 112 79 34 1 356 322 309 310 313 303 306 304 304 314 316 314 301 303 297 248 215
165 162 162 159 150 141 144 150 153 152 139 139 156 149 149 147 147 137 138 148 152 152 152 161 165 165 166 161 163 170 177 179 187 181 179 186 188 188 177 164 161 170 168 182 185 185 181 189 189 181 189 195 200 200 200 188 199 209 186 172 160 158 142 133 102 104 70 355 322 298 290 281 274 281 270 272 288 304 303 300 300 302 296 313 310
163 159 152 143 134 137 145 152 156 157 157 160 166 154 142 137 139 151 151 153 155 157 168 177 176 168 158 167 174 176 175 179 175 188 184 185 187 187 179 164 172 160 167 183 171 187 194 185 182 180 190 198 203 206 203 206 211 195 174 160 161 146 156 151 158 133 304 274 265 265 270 264 249 257 278 293 293 294 297 308 299 300 322 321 304
158 150 140 134 136 140 143 154 160 163 163 164 156 151 147 147 154 158 157 161 163 163 169 172 174 164 168 171 175 177 175 173 175 174 184 188 191 190 182 178 174 176 171 174 185 183 180 179 184 188 191 194 184 184 197 214 217 192 167 167 170 173 166 161 164 180 241 250 245 249 254 269 275 270 275 281 292 286 305 309 332 326 349 350 345
113 118 133 132 137 145 149 156 155 150 146 141 146 150 155 155 154 160 166 164 167 168 166 167 163 167 169 173 165 162 172 178 173 168 171 173 181 179 181 191 176 160 139 140 143 157 167 172 183 189 193 190 191 196 203 198 177 185 193 185 184 191 187 188 194 207 235 245 253 252 257 261 283 302 293 311 295 282 216 262 305 293 337 329 346
97 123 127 132 140 147 150 157 156 158 160 154 152 157 166 166 163 169 176 174 169 171 171 174 174 171 181 175 159 159 173 184 186 184 182 175 173 168 172 165 164 167 156 160 153 142 127 102 95 91 120 115 173 176 210 198 200 191 198 193 202 200 205 203 215 224 243 236 257 272 280 279 283 272 289 289 273 279 263 210 271 298 321 335 4
141 140 143 146 149 152 152 157 161 154 153 159 160 163 168 171 175 184 186 178 178 170 170 172 178 186 164 162 166 175 174 192 212 189 178 175 167 165 171 180 174 174 170 153 122 86 91 93 92 106 134 161 177 202 209 204 220 214 209 212 208 202 197 185 223 238 238 226 243 247 259 274 273 272 271 282 271 267 215 302 264 238 298 75 341
148 149 151 151 148 147 149 153 153 156 156 154 146 113 55 96 147 167 172 153 138 151 162 177 182 167 172 182 175 176 193 206 138 156 174 175 177 178 181 175 174 166 157 159 149 139 147 152 171 165 168 168 191 204 207 204 209 218 227 220 200 203 213 215 225 241 233 223 239 243 253 257 271 273 264 254 277 279 233 202 266 265 308 341 329
152 148 145 149 153 150 151 150 152 151 152 151 148 141 130 73 82 116 131 145 148 151 163 135 144 169 172 170 186 192 120 125 156 173 172 180 182 184 180 174 168 162 152 139 149 163 169 177 193 190 189 186 196 205 201 199 207 209 227 228 220 220 229 223 234 232 232 237 236 235 244 234 252 259 257 252 244 270 292 219 186 272 252 291 321
146 148 145 144 146 148 149 147 148 147 146 146 147 151 146 137 95 52 125 150 148 151 158 153 159 166 172 162 156 176 168 158 159 170 178 178 185 184 178 171 170 162 169 163 172 192 184 189 193 200 191 192 210 204 202 205 207 205 213 230 246 227 215 237 232 210 226 225 232 234 232 231 237 249 246 250 246 256 265 301 304 287 304 318 268
147 145 141 141 142 141 141 146 150 149 150 150 154 155 154 157 157 142 31 65 142 155 161 167 167 170 171 167 168 174 180 171 165 169 175 180 181 183 176 171 168 165 151 165 186 183 198 201 203 205 199 205 201 201 208 207 209 212 207 214 231 230 211 228 195 210 223 225 220 238 236 237 233 239 241 245 226 242 243 256 276 264 244 303 309
144 141 142 143 142 145 149 152 155 161 164 165 166 168 172 172 168 149 140 129 72 56 184 180 170 166 172 168 172 176 170 159 167 170 176 181 180 175 162 157 158 162 166 179 176 194 197 204 211 213 209 208 205 200 206 212 213 217 220 224 231 239 236 205 200 234 235 232 228 250 247 242 225 224 243 235 225 231 258 261 258 274 295 282 280
149 147 148 150 156 157 159 159 158 155 155 158 159 164 169 170 156 158 167 167 174 178 175 179 182 170 165 165 164 166 166 168 169 176 179 184 174 144 121 109 121 140 215 225 192 202 199 201 209 213 208 207 207 198 209 210 210 214 220 224 231 237 254 246 238 242 244 243 240 250 245 242 236 223 221 216 203 221 240 250 247 219 237 284 289
132 138 146 145 140 144 147 149 149 151 155 161 168 175 166 154 155 164 156 149 157 159 161 149 141 159 141 142 161 169 174 174 178 181 188 170 140 137 140 160 159 181 192 198 199 206 206 213 210 216 207 212 200 206 209 209 211 213 214 212 220 224 227 238 241 244 246 237 247 252 251 238 226 219 221 220 204 214 229 235 247 252 225 248 255
127 132 143 143 139 139 142 149 159 162 161 157 154 142 140 138 138 144 156 166 171 168 154 126 116 105 93 123 151 165 182 188 191 191 185 157 159 162 175 170 183 180 190 198 196 202 208 218 208 211 209 208 209 208 207 214 214 215 213 215 217 219 229 232 241 236 244 251 254 246 239 242 226 207 193 205 226 229 241 245 240 250 252 248 237
140 149 152 145 131 129 132 137 128 120 127 134 140 138 138 148 155 158 163 170 166 159 151 152 152 153 169 190 160 158 150 111 94 83 96 122 152 181 171 176 181 183 194 199 198 198 211 211 201 208 212 207 210 209 209 216 210 213 214 217 218 225 236 242 252 248 248 255 265 261 246 247 230 208 196 199 213 224 235 225 214 242 267 253 200
105 105 115 126 129 135 136 133 135 138 137 139 144 145 150 149 150 155 161 156 155 157 149 147 155 161 161 137 122 115 113 132 170 188 163 170 177 183 186 187 190 201 201 197 192 196 209 212 211 210 211 214 217 214 210 216 208 213 215 215 224 230 238 243 246 244 241 248 256 253 241 244 230 204 195 198 219 229 237 236 225 217 241 269 265
123 127 125 122 115 117 123 128 133 136 145 145 147 148 143 153 163 166 162 156 161 158 154 149 158 170 151 143 148 149 164 177 183 180 177 175 183 190 190 191 196 199 200 199 196 199 203 213 207 203 208 214 212 214 211 211 210 214 207 206 213 229 235 235 242 244 246 244 246 251 238 237 228 201 197 205 219 217 216 232 234 217 212 224 252
122 123 129 126 125 125 125 135 147 153 155 155 149 159 167 163 158 152 155 156 153 153 155 154 162 158 159 163 156 168 177 182 177 184 186 182 183 188 195 199 197 202 202 201 202 199 203 205 205 206 207 209 210 209 208 205 207 196 201 207 212 230 241 243 238 243 244 245 246 247 240 231 214 186 208 225 218 212 220 221 236 234 223 224 232
126 132 132 134 136 137 141 150 147 146 150 152 158 163 153 156 155 159 158 157 146 144 143 152 157 164 168 168 170 182 185 185 175 178 178 177 183 195 199 203 204 204 199 200 196 197 200 202 205 203 207 210 207 210 203 205 201 202 203 207 217 229 237 242 236 235 236 239 239 234 234 224 212 207 216 214 199 207 214 219 227 229 223 223 221
125 131 135 140 142 144 146 146 148 151 158 160 157 140 138 147 154 151 151 150 148 149 151 158 164 168 180 177 169 178 200 183 169 178 181 190 193 199 200 207 207 207 207 206 198 195 193 196 201 203 207 210 206 202 198 205 197 199 202 210 218 223 233 244 244 239 233 233 239 234 227 221 213 217 220 219 212 202 211 220 226 225 233 230 224
130 124 128 131 127 124 131 144 151 156 158 140 131 137 143 142 139 143 148 155 158 162 164 169 171 176 165 148 158 171 197 184 177 183 189 196 200 203 208 210 210 207 208 205 201 192 189 195 205 212 213 217 215 208 207 205 191 192 199 207 215 221 229 239 242 243 230 225 226 219 216 215 215 215 223 226 200 212 238 240 241 240 237 237 220
126 132 135 130 129 130 129 129 131 132 127 132 141 143 145 149 152 153 154 159 159 165 173 175 177 175 166 162 164 175 190 193 181 185 198 202 208 215 212 208 206 207 206 209 200 187 192 200 206 209 215 222 217 212 211 205 197 201 198 197 204 214 223 227 233 228 203 208 215 211 215 208 214 209 221 220 201 211 228 230 228 239 247 245 211
127 132 129 126 123 121 122 121 123 133 143 150 145 143 148 154 155 159 163 164 163 172 176 176 181 182 176 170 174 183 190 187 195 201 204 207 212 218 211 207 205 207 210 209 193 194 200 202 203 209 215 222 219 218 218 211 204 203 203 200 207 216 224 229 225 191 192 198 213 217 216 206 212 207 213 216 212 204 223 237 231 223 225 234 224
122 124 121 120 125 128 132 135 140 147 148 149 151 152 161 167 163 160 166 172 167 172 173 179 179 187 185 182 178 186 185 190 201 204 212 214 214 214 207 202 199 209 215 207 197 201 205 208 209 211 217 222 223 224 223 218 209 206 203 209 214 227 239 238 229 221 221 216 209 204 206 200 206 208 218 210 208 212 216 228 223 227 227 221 229
114 119 125 130 131 135 140 141 140 140 150 156 163 161 163 160 163 166 167 169 168 175 180 187 197 187 169 175 178 187 192 200 206 213 215 218 220 215 203 198 202 210 207 207 208 207 207 210 210 212 216 221 222 225 225 223 217 210 208 210 216 221 230 233 234 231 228 215 199 205 201 204 208 207 201 193 209 200 203 235 226 225 221 224 223
118 123 129 139 141 143 148 150 155 166 166 159 152 151 154 166 174 169 169 176 180 182 182 187 191 181 177 185 185 193 193 191 200 209 216 221 219 217 208 206 206 203 199 213 213 210 211 212 212 212 214 218 219 221 224 226 228 226 222 219 221 225 231 234 233 235 220 203 206 208 209 206 203 210 204 204 214 201 208 219 207 213 213 214 216
117 115 119 126 135 142 138 143 149 147 140 146 154 156 160 168 172 176 174 177 181 183 183 180 184 186 185 188 193 198 195 202 211 213 215 216 216 213 206 205 204 206 207 216 216 212 213 213 213 215 217 219 220 222 223 225 229 230 232 232 232 232 233 233 230 234 223 204 207 202 202 204 205 206 209 212 207 192 204 218 216 207 203 206 216
126 131 130 132 137 134 137 145 153 155 151 156 157 162 163 171 176 173 173 181 188 189 186 182 182 184 194 197 197 199 206 215 218 216 212 213 212 206 204 205 208 208 212 216 217 214 213 211 213 215 217 217 220 222 223 223 226 228 231 234 236 237 235 231 231 236 227 219 205 197 193 199 196 209 221 217 192 193 211 212 202 198 208 215 221